Saguache, CO

4:44 PM MDT on April 25, 2017 (GMT -0600)
Saguache

Weather History for K04V - September, 2013

Change the Weather History Date:

Wednesday, September 18, 2013

  Actual Average (KALS) Record (KALS)
Temperature  
Mean Temperature 58 °F -  
Max Temperature 69 °F 72 °F 84 °F (2010)
Min Temperature 48 °F 35 °F 19 °F (2006)
Degree Days  
Heating Degree Days 6    
Growing Degree Days 8 (Base 50)    
Moisture  
Dew Point 46 °F    
Average Humidity 74    
Maximum Humidity 94    
Minimum Humidity 32    
Precipitation  
Precipitation 0.03 in - - ()
Sea Level Pressure  
Sea Level Pressure 30.18 in    
Wind  
Wind Speed 5 mph (SE)    
Max Wind Speed 34 mph    
Max Gust Speed 39 mph    
Visibility 10 miles    
Events Thunderstorm    
Averages and records for this station are not official NWS values.
T = Trace of Precipitation, MM = Missing Value Source: NWS Daily Summary

Daily Weather History Graph

Daily Weather History Graph

Search for Another Location

Airport or City:

Trip Planner

Search our weather history database for the weather conditions in past years. The results will help you decide how hot, cold, wet, or windy it might be!

Date:

Astronomy

Sep. 18, 2013 Rise Set
Actual Time 6:49 AM MDT 7:07 PM MDT
Civil Twilight 6:22 AM MDT 7:33 PM MDT
Nautical Twilight 5:51 AM MDT 8:04 PM MDT
Astronomical Twilight 5:20 AM MDT 8:36 PM MDT
Moon 6:32 PM MDT (9/18) 5:55 AM MDT (9/18)
Length of Visible Light 13h 10m
Length of Day
12h 18m
Waxing Gibbous, 99% of the Moon is Illuminated
Sep 18
Waxing Gibbous
Sep 19
Full
Sep 26
Last Quarter
Oct 4
New
Oct 11
First Quarter

Hourly Weather History & Observations

Time (MDT) Temp. Dew Point Humidity Pressure Visibility Wind Dir Wind Speed Gust Speed Precip Events Conditions
12:12 AM 50.0 °F 44.6 °F 82% 30.17 in 10.0 mi Calm Calm - N/A   Clear
12:32 AM 50.0 °F 44.6 °F 82% 30.17 in 10.0 mi Calm Calm - N/A   Scattered Clouds
12:52 AM 48.2 °F 46.4 °F 93% 30.17 in 10.0 mi NNE 4.6 mph - N/A   Mostly Cloudy
1:12 AM 50.0 °F 46.4 °F 87% 30.17 in 10.0 mi Calm Calm - N/A Thunderstorm Mostly Cloudy
1:32 AM 50.0 °F 46.4 °F 87% 30.18 in 10.0 mi Calm Calm - N/A   Mostly Cloudy
1:52 AM 50.0 °F 46.4 °F 87% 30.18 in 10.0 mi NE 3.5 mph - N/A   Mostly Cloudy
2:12 AM 48.2 °F 46.4 °F 93% 30.18 in 10.0 mi Calm Calm - N/A Thunderstorm Thunderstorm
2:32 AM 50.0 °F 48.2 °F 94% 30.17 in 10.0 mi NNE 3.5 mph - N/A Thunderstorm Overcast
2:52 AM 50.0 °F 48.2 °F 94% 30.18 in 10.0 mi WNW 3.5 mph - N/A Thunderstorm Thunderstorm
3:12 AM 50.0 °F 46.4 °F 87% 30.18 in 10.0 mi NW 6.9 mph - N/A Thunderstorm Mostly Cloudy
3:32 AM 50.0 °F 46.4 °F 87% 30.17 in 10.0 mi North 3.5 mph - N/A Thunderstorm Overcast
3:52 AM 50.0 °F 48.2 °F 94% 30.17 in 10.0 mi Calm Calm - N/A Thunderstorm Overcast
4:12 AM 50.0 °F 46.4 °F 87% 30.17 in 10.0 mi WNW 4.6 mph - N/A Thunderstorm Thunderstorm
4:32 AM 50.0 °F 48.2 °F 94% 30.19 in 10.0 mi NNW 3.5 mph - N/A Thunderstorm Mostly Cloudy
4:52 AM 50.0 °F 46.4 °F 87% 30.19 in 10.0 mi SE 3.5 mph - N/A Thunderstorm Overcast
5:12 AM 53.6 °F 44.6 °F 72% 30.19 in 10.0 mi South 8.1 mph 16.1 mph N/A Thunderstorm Mostly Cloudy
5:32 AM 51.8 °F 46.4 °F 82% 30.19 in 10.0 mi East 5.8 mph - N/A Thunderstorm Mostly Cloudy
5:52 AM 51.8 °F 46.4 °F 82% 30.18 in 10.0 mi East 5.8 mph - N/A   Overcast
6:12 AM 51.8 °F 46.4 °F 82% 30.19 in 10.0 mi SSE 3.5 mph - N/A Thunderstorm Overcast
6:32 AM 50.0 °F 46.4 °F 87% 30.18 in 10.0 mi ESE 6.9 mph - N/A   Mostly Cloudy
6:52 AM 48.2 °F 44.6 °F 87% 30.19 in 10.0 mi Calm Calm - N/A   Scattered Clouds
7:12 AM 48.2 °F 46.4 °F 93% 30.20 in 10.0 mi Calm Calm - N/A   Mostly Cloudy
7:32 AM 50.0 °F 46.4 °F 87% 30.21 in 10.0 mi NW 4.6 mph - N/A   Overcast
7:52 AM 51.8 °F 46.4 °F 82% 30.21 in 10.0 mi NNW 4.6 mph - N/A Thunderstorm Overcast
8:12 AM 51.8 °F 46.4 °F 82% 30.22 in 10.0 mi Calm Calm - N/A   Overcast
8:32 AM 51.8 °F 46.4 °F 82% 30.21 in 10.0 mi North 3.5 mph - N/A   Overcast
8:52 AM 53.6 °F 46.4 °F 77% 30.22 in 10.0 mi NW 3.5 mph - N/A Thunderstorm Overcast
9:11 AM 55.4 °F 46.4 °F 72% 30.22 in 10.0 mi Calm Calm - N/A   Scattered Clouds
9:32 AM 57.2 °F 46.4 °F 67% 30.22 in 10.0 mi Calm Calm - N/A   Mostly Cloudy
9:52 AM 57.2 °F 46.4 °F 67% 30.23 in 10.0 mi Calm Calm - N/A Thunderstorm Overcast
10:12 AM 57.2 °F 48.2 °F 72% 30.22 in 10.0 mi East 4.6 mph - N/A   Mostly Cloudy
10:32 AM 59.0 °F 46.4 °F 63% 30.21 in 10.0 mi ESE 4.6 mph - N/A   Clear
10:52 AM 59.0 °F 48.2 °F 67% 30.21 in 10.0 mi South 3.5 mph - N/A   Clear
11:12 AM 59.0 °F 48.2 °F 67% 30.21 in 10.0 mi SSE 5.8 mph - N/A Thunderstorm Clear
11:32 AM 59.0 °F 48.2 °F 67% 30.22 in 10.0 mi South 6.9 mph - N/A   Mostly Cloudy
11:52 AM 59.0 °F 48.2 °F 67% 30.22 in 10.0 mi SSE 3.5 mph - N/A   Overcast
12:12 PM 59.0 °F 50.0 °F 72% 30.21 in 10.0 mi SE 6.9 mph - N/A   Overcast
12:31 PM 57.2 °F 51.8 °F 82% 30.21 in 5.0 mi SSE 6.9 mph - N/A   Overcast
12:51 PM 59.0 °F 51.8 °F 77% 30.19 in 10.0 mi SE 6.9 mph - N/A   Mostly Cloudy
1:12 PM 60.8 °F 50.0 °F 68% 30.19 in 10.0 mi SSE 10.4 mph - N/A   Overcast
1:32 PM 60.8 °F 48.2 °F 63% 30.18 in 10.0 mi SSE 10.4 mph - N/A   Overcast
1:52 PM 62.6 °F 48.2 °F 59% 30.16 in 10.0 mi SE 11.5 mph - N/A   Overcast
2:12 PM 64.4 °F 46.4 °F 52% 30.14 in 10.0 mi SE 12.7 mph - N/A   Overcast
2:32 PM 68.0 °F 44.6 °F 43% 30.12 in 10.0 mi SSE 13.8 mph 19.6 mph N/A Thunderstorm Mostly Cloudy
2:51 PM 68.0 °F 44.6 °F 43% 30.12 in 10.0 mi SSE 16.1 mph - N/A   Scattered Clouds
3:12 PM 69.8 °F 42.8 °F 38% 30.11 in 10.0 mi SSE 12.7 mph 18.4 mph N/A   Clear
3:32 PM 69.8 °F 42.8 °F 38% 30.09 in 10.0 mi SSE 13.8 mph - N/A   Scattered Clouds
3:52 PM 68.0 °F 42.8 °F 40% 30.10 in 10.0 mi South 15.0 mph 19.6 mph N/A   Scattered Clouds
4:12 PM 68.0 °F 42.8 °F 40% 30.09 in 10.0 mi SSE 13.8 mph - N/A   Overcast
4:32 PM 68.0 °F 42.8 °F 40% 30.08 in 10.0 mi SSW 18.4 mph 25.3 mph N/A   Scattered Clouds
4:52 PM 66.2 °F 42.8 °F 43% 30.09 in 10.0 mi SSW 15.0 mph 26.5 mph N/A Thunderstorm Thunderstorm
5:12 PM 66.2 °F 41.0 °F 40% 30.09 in 10.0 mi SSW 13.8 mph 24.2 mph N/A   Mostly Cloudy
5:32 PM 66.2 °F 35.6 °F 32% 30.09 in 10.0 mi SW 12.7 mph 19.6 mph N/A   Scattered Clouds
5:52 PM 62.6 °F 41.0 °F 45% 30.11 in 10.0 mi North 9.2 mph 17.3 mph N/A   Mostly Cloudy
6:12 PM 59.0 °F 39.2 °F 48% 30.17 in 10.0 mi NW 34.5 mph 39.1 mph N/A Thunderstorm Overcast
6:32 PM 51.8 °F 46.4 °F 82% 30.17 in 3.0 mi NNW 18.4 mph 26.5 mph 0.01 in Thunderstorm Overcast
6:52 PM 53.6 °F 44.6 °F 72% 30.17 in 10.0 mi NW 6.9 mph 18.4 mph 0.01 in   Overcast
7:12 PM 53.6 °F 44.6 °F 72% 30.18 in 10.0 mi NNW 13.8 mph 23.0 mph N/A   Overcast
7:32 PM 51.8 °F 46.4 °F 82% 30.19 in 7.0 mi WNW 18.4 mph 36.8 mph N/A   Overcast
7:52 PM 51.8 °F 46.4 °F 82% 30.19 in 10.0 mi NW 4.6 mph 10.4 mph 0.01 in   Overcast
8:12 PM 51.8 °F 46.4 °F 82% 30.21 in 10.0 mi West 5.8 mph - N/A   Overcast
8:32 PM 51.8 °F 44.6 °F 76% 30.21 in 7.0 mi Calm Calm - N/A   Overcast
8:52 PM 51.8 °F 44.6 °F 76% 30.21 in 7.0 mi SE 4.6 mph - N/A   Overcast
9:12 PM 50.0 °F 44.6 °F 82% 30.19 in 10.0 mi SE 3.5 mph - 0.01 in   Overcast
9:32 PM 50.0 °F 44.6 °F 82% 30.21 in 10.0 mi ENE 3.5 mph - 0.01 in   Overcast
9:51 PM 50.0 °F 46.4 °F 87% 30.21 in 10.0 mi Calm Calm - 0.01 in   Overcast
10:11 PM 50.0 °F 46.4 °F 87% 30.21 in 10.0 mi SW 3.5 mph - N/A   Overcast
10:32 PM 50.0 °F 46.4 °F 87% 30.21 in 10.0 mi Calm Calm - N/A   Scattered Clouds
10:52 PM 50.0 °F 46.4 °F 87% 30.19 in 10.0 mi Calm Calm - N/A   Mostly Cloudy
11:11 PM 50.0 °F 46.4 °F 87% 30.20 in 10.0 mi SE 3.5 mph - N/A Thunderstorm Scattered Clouds
11:32 PM 48.2 °F 46.4 °F 93% 30.23 in 10.0 mi Calm Calm - N/A   Mostly Cloudy
11:52 PM 50.0 °F 46.4 °F 87% 30.24 in 10.0 mi Calm Calm - N/A   Overcast